[[{"header":{"parameterUnit":"m.s-1","parameterCategory":2,"la1":30.2991,"la2":30.254,"lo1":-89.0895,"lo2":-89.0444,"dy":0.0017,"dx":0.0017,"nx":28,"ny":28,"refTime":"2023-07-19T03:00:00:Z","depth":"0","parameterNumber":2,"parameterNumberName":"U-component_of_CURRENTS"},"data":[0,0,0,0,0,0,0,0,0,0,0,0,0,0,0,0,0,0,0,0,0,0,0,0,0,0,0,0,0,0,0,0,0,0,0,0,0,0,0,0,0,0,0,0,0,0,0,0,0,0,0,0,0,0,0,0,0,0,0.396,0.3962,0,0.4122,0.4124,0.4125,0.415,0.4149,0.4148,0.4146,0.4208,0.421,0.4213,0,0,0,0,0,0,0,0,0,0,0,0,0,0.3791,0.3793,0.396,0.3962,0.3964,0.4122,0.4124,0.4126,0.4151,0.4149,0.4147,0.4146,0.4207,0.421,0.4213,0,0,0,0,0,0,0,0,0,0,0,0,0,0.3898,0.3794,0.3959,0.3996,0.4001,0.4121,0.4124,0.4126,0.4151,0.4149,0.4147,0.4145,0.4205,0.421,0.4214,0.428,0,0,0.4227,0.4229,0,0,0,0,0,0,0,0,0.3892,0.3904,0.3989,0.3994,0.4,0.4115,0.4087,0.4173,0.4151,0.4093,0.4146,0.4144,0.417,0.4177,0.4211,0.4283,0.4285,0.4227,0.423,0.4232,0.4233,0,0,0,0,0,0,0,0.3884,0.3898,0.4022,0.3991,0.3998,0.4046,0.4058,0.4104,0.4137,0.4098,0.41,0.4121,0.4171,0.4207,0.4212,0.4286,0.4227,0.4231,0.4234,0.4235,0.4471,0.4474,0,0,0,0,0,0,0.3864,0.3891,0.4017,0.4027,0.3942,0.405,0.4064,0.4079,0.4139,0.4148,0.4123,0.4122,0.4201,0.4207,0.4214,0.4279,0.4232,0.4236,0.4238,0.4467,0.4471,0.4475,0,0,0,0,0,0,0.3859,0.3873,0.4011,0.3964,0.3985,0.4054,0.4072,0.4083,0.4123,0.416,0.4165,0.4151,0.4199,0.4208,0.4267,0.4282,0.4238,0.4242,0.4463,0.4468,0.4473,0.4419,0,0,0,0,0,0,0.3854,0.3871,0.3881,0.3962,0.3987,0.4082,0.4075,0.4088,0.4139,0.414,0.4186,0.419,0.4199,0.4261,0.4272,0.4287,0.4245,0.4458,0.4465,0.4472,0.4416,0.4422,0.4427,0,0,0,0,0,0.3847,0.3881,0.388,0.3896,0.3996,0.4083,0.4101,0.4143,0.4143,0.4169,0.4203,0.4188,0.4313,0.4267,0.4279,0.4295,0.4455,0.4463,0.4471,0.4414,0.4421,0.4427,0,0,0,0,0,0,0.3814,0.3889,0.3889,0.3942,0.4001,0.4088,0.4129,0.4153,0.4207,0.42,0.4226,0.4234,0.4291,0.4327,0.4276,0.4396,0.4387,0.4398,0.434,0.4347,0.4352,0.4319,0.4248,0,0,0,0,0,0.3809,0.3848,0.392,0.3958,0.3993,0.4059,0.4102,0.4125,0.4183,0.4205,0.4232,0.4283,0.4342,0.4365,0.4415,0.4479,0.452,0.451,0.4515,0.4519,0.4509,0.46,0.461,0.4503,0.4502,0.4502,0,0,0.3804,0.3852,0.3872,0.3953,0.4006,0.4042,0.4081,0.4145,0.4158,0.4204,0.4235,0.4295,0.4367,0.4427,0.4459,0.4451,0.4579,0.4529,0.453,0.4518,0.4609,0.4619,0.4627,0.4508,0.4507,0.4506,0,0,0.3819,0.386,0.3895,0.3937,0.401,0.4049,0.4065,0.4144,0.4167,0.4218,0.4258,0.4334,0.4407,0.4465,0.4504,0.4586,0.4602,0.4611,0.4602,0.4691,0.4698,0.4705,0.4779,0.4793,0.4614,0.4614,0.4614,0,0.3807,0.3849,0.392,0.3954,0.3981,0.4044,0.4067,0.4109,0.4185,0.4213,0.4214,0.4367,0.4423,0.4517,0.4547,0.4589,0.4637,0.4552,0.469,0.4698,0.4706,0.478,0.4796,0.4612,0.4612,0.4613,0.4613,0,0.3835,0.3861,0.3893,0.3936,0.3978,0.4017,0.4068,0.4103,0.4133,0.4174,0.4266,0.436,0.4455,0.4498,0.454,0.4644,0.4659,0.4675,0.4648,0.4712,0.4788,0.4806,0.461,0.4611,0.4611,0.4611,0,0,0.3807,0.3895,0.3894,0.3901,0.3965,0.3999,0.403,0.409,0.4113,0.4184,0.4238,0.4364,0.4427,0.4482,0.4562,0.4641,0.4753,0.4678,0.4684,0.4707,0.494,0.4816,0.4823,0.4782,0.4784,0.4787,0.497,0,0.3797,0.3847,0.3887,0.3898,0.3928,0.3974,0.3993,0.4046,0.4104,0.4168,0.4281,0.4361,0.4417,0.4476,0.4567,0.4714,0.4796,0.4701,0.4914,0.492,0.4765,0.4838,0.4662,0.4798,0.4987,0.499,0.4992,0,0.378,0.3825,0.3848,0.3881,0.3895,0.3894,0.3942,0.3971,0.4075,0.4125,0.423,0.4322,0.4475,0.4502,0.475,0.4685,0.481,0.4905,0.4915,0.4822,0.4827,0.4772,0.4823,0.4676,0.5019,0.5017,0.5015,0,0.372,0.377,0.3785,0.3796,0.3857,0.3858,0.3879,0.3957,0.3982,0.4106,0.4149,0.4329,0.4423,0.4604,0.48,0.4796,0.5044,0.5072,0.5073,0.5066,0.4968,0.4946,0.4858,0.5235,0.5234,0.5234,0.5233,0,0.3691,0.3685,0.3751,0.3759,0.3748,0.3804,0.3806,0.3854,0.3933,0.3968,0.4122,0.4194,0.445,0.4618,0.4802,0.4973,0.5056,0.5075,0.5105,0.4947,0.4922,0.483,0.4739,0.524,0.5239,0.5238,0.5236,0,0.3615,0.3667,0.3668,0.3719,0.3721,0.3707,0.3729,0.3744,0.3824,0.3882,0.392,0.4117,0.4332,0.456,0.4861,0.4949,0.4999,0.518,0.4958,0.4955,0.4782,0.4694,0.455,0.444,0.5226,0.5224,0.5222,0,0.3595,0.3589,0.3609,0.3602,0.3615,0.3612,0.3609,0.3675,0.3693,0.383,0.3853,0.406,0.4194,0.4546,0.4765,0.5028,0.4916,0.4973,0.4925,0.4732,0.4662,0.4523,0.4432,0.4808,0.4803,0.4799,0.4795,0,0.3535,0.3519,0.3527,0.3513,0.3499,0.3478,0.3481,0.3477,0.3566,0.3621,0.3716,0.3831,0.4148,0.4312,0.4599,0.4764,0.4684,0.4893,0.4774,0.437,0.4138,0.4058,0.4723,0.4759,0.4763,0.4766,0.4768,0.4769,0.3463,0.343,0.3427,0.3387,0.3378,0.3328,0.3275,0.3311,0.3317,0.3369,0.3551,0.3663,0.3907,0.4291,0.4383,0.44,0.4459,0.4379,0.4314,0.4213,0.3989,0.4537,0.4539,0.4541,0.4543,0.4545,0.4546,0,0.3355,0.3324,0.3302,0.3245,0.3173,0.3206,0.317,0.3114,0.3089,0.3204,0.3286,0.3461,0.3638,0.3825,0.3946,0.3839,0.3775,0.3783,0.3567,0.3532,0.4114,0.3973,0.375,0.375,0.375,0.3751,0.3751,0.3751,0.3303,0.3223,0.3194,0.3048,0.3001,0.2877,0.2829,0.2793,0.2834,0.2845,0.2902,0.3041,0.3253,0.3421,0.3373,0.3358,0.3108,0.3019,0.3034,0.3444,0.3496,0.3545,0.3393,0.3051,0.305,0.2382,0.2376,0.2372]},{"header":{"parameterUnit":"m.s-1","parameterCategory":2,"la1":30.2991,"la2":30.254,"lo1":-89.0895,"lo2":-89.0444,"dy":0.0017,"dx":0.0017,"nx":28,"ny":28,"refTime":"2023-07-19T03:00:00:Z","depth":"0","parameterNumber":3,"parameterNumberName":"V-component_of_CURRENTS"},"data":[0,0,0,0,0,0,0,0,0,0,0,0,0,0,0,0,0,0,0,0,0,0,0,0,0,0,0,0,0,0,0,0,0,0,0,0,0,0,0,0,0,0,0,0,0,0,0,0,0,0,0,0,0,0,0,0,0,0,0.1178,0.1179,0,0.1242,0.1242,0.1243,0.1169,0.1166,0.1163,0.1161,0.1007,0.1006,0.1004,0,0,0,0,0,0,0,0,0,0,0,0,0,0.1076,0.1078,0.1178,0.1179,0.118,0.1242,0.1242,0.1243,0.1169,0.1166,0.1163,0.116,0.1008,0.1006,0.1004,0,0,0,0,0,0,0,0,0,0,0,0,0,0.1127,0.1078,0.1178,0.1151,0.1149,0.1241,0.1242,0.1243,0.117,0.1166,0.1162,0.1158,0.1008,0.1006,0.1004,0.107,0,0,0.0996,0.0995,0,0,0,0,0,0,0,0,0.1124,0.1131,0.1154,0.1153,0.1151,0.1194,0.115,0.1175,0.1171,0.1161,0.1161,0.1156,0.1053,0.1047,0.107,0.1063,0.1056,0.0996,0.0995,0.0994,0.0993,0,0,0,0,0,0,0,0.1121,0.1128,0.1202,0.1156,0.1154,0.1165,0.1166,0.1156,0.1124,0.1162,0.1157,0.1167,0.105,0.1072,0.1065,0.1054,0.0996,0.0994,0.0993,0.0992,0.1079,0.1083,0,0,0,0,0,0,0.1116,0.1125,0.12,0.1204,0.1129,0.1169,0.1172,0.1184,0.1129,0.1119,0.117,0.1163,0.1078,0.1068,0.1059,0.1112,0.0994,0.0991,0.099,0.1075,0.108,0.1084,0,0,0,0,0,0,0.1113,0.1122,0.1198,0.1166,0.1176,0.1175,0.119,0.1187,0.1208,0.1138,0.1122,0.1193,0.1075,0.1062,0.1073,0.1105,0.099,0.0988,0.1071,0.1077,0.1082,0.123,0,0,0,0,0,0,0.111,0.1121,0.1134,0.1166,0.1178,0.1255,0.1194,0.1191,0.1221,0.1212,0.1153,0.1134,0.1071,0.1077,0.107,0.1099,0.0986,0.1066,0.1074,0.108,0.1221,0.124,0.1257,0,0,0,0,0,0.1106,0.1141,0.1134,0.1143,0.1194,0.1257,0.1266,0.1249,0.1226,0.1251,0.1223,0.1136,0.1115,0.108,0.107,0.1099,0.1063,0.1071,0.108,0.1213,0.1237,0.1257,0,0,0,0,0,0,0.1103,0.1138,0.113,0.1172,0.1212,0.1244,0.1268,0.1274,0.1282,0.1259,0.1193,0.1176,0.1197,0.1149,0.111,0.1151,0.1073,0.108,0.1177,0.1199,0.1217,0.1235,0.0984,0,0,0,0,0,0.1113,0.115,0.1181,0.1223,0.1235,0.1262,0.1287,0.1284,0.1295,0.1295,0.1271,0.1241,0.1234,0.1214,0.1201,0.1229,0.1177,0.1243,0.1261,0.1277,0.1291,0.1256,0.1271,0.1112,0.1112,0.1111,0,0,0.113,0.1153,0.1175,0.1226,0.1248,0.1292,0.1266,0.1311,0.1354,0.1277,0.1327,0.1309,0.1263,0.1292,0.1295,0.1245,0.1302,0.1288,0.1301,0.1306,0.1266,0.1281,0.1295,0.1117,0.1116,0.1115,0,0,0.1189,0.1195,0.1241,0.1268,0.1307,0.133,0.135,0.1396,0.1411,0.1473,0.1428,0.1452,0.1438,0.1426,0.141,0.1532,0.141,0.1512,0.1601,0.1568,0.158,0.1589,0.156,0.1566,0.1507,0.1508,0.1508,0,0.1209,0.1261,0.127,0.131,0.1346,0.135,0.1411,0.1439,0.1493,0.1531,0.1493,0.1547,0.1507,0.1553,0.159,0.1571,0.1522,0.1514,0.1588,0.1597,0.1604,0.1571,0.1575,0.1516,0.1515,0.1514,0.1513,0,0.1285,0.1327,0.1357,0.1408,0.1452,0.1506,0.1537,0.1588,0.1613,0.1647,0.1721,0.1705,0.1729,0.1727,0.1688,0.1737,0.1679,0.1621,0.1523,0.1628,0.1588,0.159,0.1528,0.1525,0.1522,0.152,0,0,0.1347,0.1404,0.141,0.1458,0.1506,0.1563,0.163,0.1719,0.1776,0.1819,0.1908,0.193,0.1926,0.1914,0.1879,0.1857,0.1878,0.1763,0.1757,0.1719,0.1795,0.1711,0.1703,0.1809,0.181,0.1811,0.1752,0,0.1414,0.1508,0.1518,0.1629,0.1695,0.171,0.1783,0.185,0.1897,0.1976,0.1984,0.2037,0.199,0.2003,0.1987,0.1912,0.1886,0.1899,0.1713,0.1709,0.1607,0.1705,0.1629,0.1565,0.1753,0.1753,0.1753,0,0.1484,0.1552,0.1657,0.1766,0.1791,0.1845,0.1965,0.2024,0.2101,0.2135,0.2186,0.218,0.2212,0.2128,0.206,0.2059,0.1949,0.1873,0.1867,0.1735,0.1627,0.1489,0.1559,0.1295,0.1754,0.1754,0.1754,0,0.1549,0.1653,0.1748,0.1777,0.1885,0.1942,0.1998,0.2082,0.2141,0.2227,0.2276,0.2302,0.2314,0.221,0.209,0.2057,0.1978,0.1903,0.1728,0.172,0.1595,0.1575,0.1373,0.183,0.1831,0.1831,0.1831,0,0.1628,0.1703,0.178,0.1833,0.1946,0.2005,0.2111,0.2164,0.2249,0.2324,0.2351,0.2412,0.2324,0.2276,0.2135,0.196,0.2011,0.1769,0.1707,0.1649,0.1634,0.1347,0.1254,0.1829,0.1829,0.1829,0.183,0,0.166,0.1719,0.1822,0.1936,0.1972,0.2041,0.2141,0.2221,0.2294,0.2388,0.2419,0.2489,0.2441,0.2337,0.2179,0.2013,0.1709,0.176,0.171,0.1642,0.1209,0.113,0.0942,0.0864,0.1556,0.1554,0.1552,0,0.1674,0.1731,0.1846,0.1904,0.1947,0.2048,0.2121,0.2222,0.2297,0.2431,0.2483,0.2504,0.2522,0.2306,0.2044,0.18,0.163,0.1529,0.1454,0.1193,0.1059,0.1027,0.0974,0.1356,0.1352,0.135,0.1347,0,0.1687,0.171,0.1785,0.1895,0.1985,0.208,0.2186,0.2252,0.2373,0.2464,0.2561,0.2592,0.2427,0.2182,0.1873,0.1685,0.1349,0.1459,0.1198,0.0907,0.0851,0.0742,0.139,0.1323,0.1325,0.1327,0.1328,0.1329,0.1656,0.1693,0.1782,0.1879,0.1982,0.2096,0.2161,0.2278,0.2393,0.2515,0.2575,0.262,0.2268,0.1857,0.1583,0.1002,0.1128,0.0804,0.0739,0.0737,0.0631,0.1231,0.1081,0.1082,0.1083,0.1084,0.1084,0,0.1619,0.1685,0.1769,0.1897,0.1979,0.2055,0.2196,0.226,0.2369,0.2493,0.2565,0.2383,0.1946,0.1502,0.075,0.0319,0.025,0.0147,0.0062,0.0053,0.0564,0.0517,0.0226,0.0226,0.0226,0.0226,0.0227,0.0227,0.1622,0.1674,0.1724,0.1855,0.1945,0.2045,0.2117,0.2222,0.2314,0.2391,0.2394,0.2415,0.2001,0.0747,-0.0164,-0.0318,-0.0567,-0.0571,-0.0639,-0.0357,-0.0302,-0.0249,-0.032,-0.0782,-0.0783,-0.1132,-0.1136,-0.1139]}],[{"header":{"parameterUnit":"m.s-1","parameterCategory":2,"la1":30.2991,"la2":30.254,"lo1":-89.0895,"lo2":-89.0444,"dy":0.0017,"dx":0.0017,"nx":28,"ny":28,"refTime":"2023-07-19T03:00:00:Z","depth":"2","parameterNumber":2,"parameterNumberName":"U-component_of_CURRENTS"},"data":[0,0,0,0,0,0,0,0,0,0,0,0,0,0,0,0,0,0,0,0,0,0,0,0,0,0,0,0,0,0,0,0,0,0,0,0,0,0,0,0,0,0,0,0,0,0,0,0,0,0,0,0,0,0,0,0,0,0,0.308,0.308,0,0.3137,0.3139,0.314,0.3368,0.3372,0.3377,0.3381,0.353,0.353,0.353,0,0,0,0,0,0,0,0,0,0,0,0,0,0.3009,0.3011,0.308,0.308,0.3079,0.3137,0.3139,0.3141,0.3367,0.3373,0.3378,0.3383,0.353,0.353,0.353,0,0,0,0,0,0,0,0,0,0,0,0,0,0.3061,0.3011,0.308,0.3192,0.3201,0.3137,0.3139,0.3141,0.3366,0.3373,0.3379,0.3385,0.353,0.353,0.353,0.3402,0,0,0.353,0.353,0,0,0,0,0,0,0,0,0.3058,0.3065,0.3175,0.3184,0.3194,0.3243,0.3168,0.3229,0.3365,0.3315,0.3381,0.3388,0.3431,0.3439,0.345,0.3409,0.3416,0.353,0.353,0.353,0.353,0,0,0,0,0,0,0,0.3054,0.3062,0.3114,0.3174,0.3186,0.3183,0.3201,0.318,0.3346,0.332,0.3334,0.3321,0.3439,0.3449,0.3455,0.3418,0.353,0.353,0.353,0.353,0.3559,0.3559,0,0,0,0,0,0,0.3026,0.3059,0.3112,0.3114,0.3128,0.318,0.3199,0.3229,0.3345,0.3365,0.3315,0.3331,0.3446,0.3455,0.3461,0.354,0.353,0.353,0.353,0.3558,0.3559,0.3559,0,0,0,0,0,0,0.3025,0.3032,0.3109,0.3077,0.3086,0.3174,0.3206,0.3227,0.3307,0.3339,0.3365,0.3381,0.3452,0.3461,0.3513,0.354,0.353,0.353,0.3557,0.3558,0.3559,0.3554,0,0,0,0,0,0,0.3024,0.3033,0.3066,0.3076,0.3086,0.3132,0.3199,0.3223,0.328,0.3304,0.34,0.3418,0.3457,0.3512,0.3513,0.354,0.353,0.3556,0.3557,0.3559,0.3553,0.3554,0.3556,0,0,0,0,0,0.3022,0.3009,0.3068,0.3074,0.3124,0.3132,0.314,0.3228,0.3277,0.3323,0.3386,0.3419,0.3523,0.3511,0.3512,0.354,0.3555,0.3557,0.3559,0.3552,0.3554,0.3556,0,0,0,0,0,0,0.2985,0.303,0.3096,0.3102,0.3152,0.3169,0.3174,0.3237,0.3316,0.3342,0.3403,0.3423,0.348,0.3498,0.3484,0.3555,0.3552,0.3553,0.3547,0.3549,0.355,0.3471,0.353,0,0,0,0,0,0.2988,0.2992,0.306,0.3055,0.3082,0.314,0.3156,0.3224,0.3268,0.3315,0.3398,0.3453,0.3464,0.3505,0.3529,0.3542,0.349,0.357,0.3571,0.3572,0.351,0.3505,0.3499,0.3565,0.3565,0.3565,0,0,0.2945,0.2977,0.2974,0.3046,0.3076,0.3079,0.3172,0.3196,0.3218,0.3303,0.3385,0.3451,0.3466,0.351,0.3538,0.3545,0.3517,0.3574,0.3575,0.351,0.3506,0.3499,0.3492,0.3566,0.3566,0.3566,0,0,0.2827,0.2921,0.2893,0.2959,0.3023,0.304,0.3061,0.3152,0.3239,0.3298,0.3362,0.3431,0.35,0.3517,0.3516,0.352,0.3515,0.358,0.3532,0.3531,0.3524,0.3517,0.3394,0.3377,0.3595,0.3595,0.3595,0,0.2806,0.2782,0.2881,0.2902,0.294,0.3022,0.3029,0.3071,0.3185,0.3258,0.3338,0.3448,0.3472,0.3467,0.3484,0.3515,0.3493,0.3527,0.3529,0.3522,0.3515,0.3391,0.3371,0.3595,0.3595,0.3595,0.3595,0,0.2688,0.2701,0.2679,0.2734,0.281,0.2803,0.2911,0.2992,0.3098,0.3183,0.3301,0.336,0.3436,0.347,0.3461,0.345,0.3436,0.3521,0.3516,0.3507,0.3377,0.3357,0.3595,0.3595,0.3595,0.3595,0,0,0.2547,0.2588,0.2598,0.2623,0.2744,0.2777,0.2822,0.2905,0.2918,0.3113,0.3156,0.3233,0.3348,0.3347,0.3403,0.339,0.3299,0.3438,0.3438,0.3293,0.3223,0.3237,0.3216,0.3431,0.3429,0.3427,0.3132,0,0.2426,0.2409,0.2491,0.2472,0.2469,0.2635,0.2672,0.28,0.289,0.2952,0.3089,0.3155,0.3276,0.3328,0.3335,0.3309,0.3256,0.3363,0.3267,0.3259,0.3261,0.3198,0.3008,0.2736,0.3112,0.3109,0.3106,0,0.2325,0.23,0.2302,0.2369,0.2402,0.2428,0.255,0.2595,0.2706,0.2825,0.2954,0.3058,0.3084,0.318,0.3147,0.3237,0.3197,0.3173,0.3166,0.3155,0.3239,0.2818,0.2685,0.3072,0.3075,0.3077,0.308,0,0.22,0.22,0.2192,0.2232,0.2308,0.2378,0.2431,0.2577,0.2647,0.2734,0.2809,0.2899,0.2961,0.2964,0.3034,0.3075,0.2952,0.3006,0.2951,0.2947,0.274,0.2725,0.291,0.2911,0.2911,0.2912,0.2913,0,0.2061,0.2031,0.2125,0.2115,0.2121,0.2281,0.2314,0.2401,0.2507,0.2575,0.2743,0.2801,0.2931,0.2951,0.2941,0.2907,0.2912,0.2865,0.2879,0.2732,0.2721,0.3004,0.3019,0.2901,0.2903,0.2906,0.2908,0,0.19,0.1962,0.1937,0.2021,0.2061,0.2094,0.226,0.227,0.2416,0.2476,0.254,0.2714,0.2781,0.2864,0.2822,0.2808,0.2746,0.2733,0.2507,0.2502,0.2708,0.2726,0.2509,0.2507,0.2505,0.2504,0.2503,0,0.179,0.1768,0.1883,0.1905,0.1929,0.1999,0.206,0.2223,0.2263,0.2444,0.2458,0.2584,0.2674,0.2634,0.2629,0.2556,0.2706,0.2328,0.2367,0.2634,0.2669,0.269,0.271,0.2029,0.2024,0.202,0.2017,0,0.1546,0.1657,0.1663,0.1727,0.1793,0.1847,0.1938,0.197,0.2168,0.2247,0.2352,0.242,0.2469,0.2388,0.2385,0.2313,0.233,0.2245,0.2566,0.2236,0.218,0.2218,0.2252,0.1982,0.1985,0.1988,0.199,0.1991,0.1412,0.1408,0.1508,0.156,0.1628,0.1694,0.1717,0.1825,0.1905,0.2012,0.2131,0.2179,0.2201,0.2109,0.2051,0.2003,0.2118,0.2003,0.2013,0.2029,0.2102,0.2057,0.1836,0.1839,0.1841,0.1843,0.1845,0,0.1272,0.131,0.1331,0.1422,0.145,0.1557,0.1638,0.1653,0.1717,0.1829,0.1903,0.1736,0.1717,0.1798,0.1668,0.1627,0.1579,0.1573,0.1522,0.1556,0.1587,0.164,0.1248,0.1247,0.1246,0.1245,0,0,0.1178,0.1183,0.122,0.1239,0.1314,0.135,0.1393,0.1423,0.1498,0.1478,0.1504,0.161,0.173,0.1482,0.1432,0.1365,0.1451,0.1292,0.1762,0.1737,0.1767,0.1815,0.1934,0,0,0,0,0]},{"header":{"parameterUnit":"m.s-1","parameterCategory":2,"la1":30.2991,"la2":30.254,"lo1":-89.0895,"lo2":-89.0444,"dy":0.0017,"dx":0.0017,"nx":28,"ny":28,"refTime":"2023-07-19T03:00:00:Z","depth":"2","parameterNumber":3,"parameterNumberName":"V-component_of_CURRENTS"},"data":[0,0,0,0,0,0,0,0,0,0,0,0,0,0,0,0,0,0,0,0,0,0,0,0,0,0,0,0,0,0,0,0,0,0,0,0,0,0,0,0,0,0,0,0,0,0,0,0,0,0,0,0,0,0,0,0,0,0,-0.0664,-0.0665,0,-0.0659,-0.0658,-0.0656,-0.0454,-0.045,-0.0446,-0.0442,-0.0338,-0.0339,-0.034,0,0,0,0,0,0,0,0,0,0,0,0,0,-0.041,-0.0415,-0.0664,-0.0665,-0.0667,-0.0659,-0.0658,-0.0656,-0.0455,-0.045,-0.0445,-0.044,-0.0338,-0.0339,-0.034,0,0,0,0,0,0,0,0,0,0,0,0,0,-0.0462,-0.0417,-0.0664,-0.0575,-0.0568,-0.0659,-0.0658,-0.0656,-0.0456,-0.045,-0.0444,-0.0438,-0.0337,-0.0339,-0.034,-0.0471,0,0,-0.0345,-0.0345,0,0,0,0,0,0,0,0,-0.0459,-0.047,-0.0587,-0.0581,-0.0574,-0.0562,-0.053,-0.0594,-0.0457,-0.0484,-0.0442,-0.0435,-0.0417,-0.0412,-0.0407,-0.0466,-0.0461,-0.0345,-0.0346,-0.0346,-0.0347,0,0,0,0,0,0,0,-0.0456,-0.0469,-0.0648,-0.0589,-0.0581,-0.0505,-0.0505,-0.054,-0.0473,-0.0482,-0.047,-0.0493,-0.041,-0.0406,-0.0403,-0.046,-0.0345,-0.0346,-0.0347,-0.0348,-0.0427,-0.0429,0,0,0,0,0,0,-0.0497,-0.0467,-0.0649,-0.065,-0.0515,-0.0516,-0.0515,-0.0561,-0.0474,-0.046,-0.0498,-0.0483,-0.0406,-0.0401,-0.0398,-0.0374,-0.0346,-0.0348,-0.0349,-0.0426,-0.0428,-0.0429,0,0,0,0,0,0,-0.0491,-0.0514,-0.0649,-0.0565,-0.0579,-0.0529,-0.0581,-0.0565,-0.0506,-0.049,-0.0469,-0.0451,-0.0401,-0.0396,-0.0336,-0.0374,-0.0348,-0.035,-0.0425,-0.0427,-0.0428,-0.0437,0,0,0,0,0,0,-0.0485,-0.0513,-0.0509,-0.0571,-0.0586,-0.063,-0.0588,-0.057,-0.054,-0.0518,-0.0446,-0.0432,-0.0396,-0.0333,-0.0337,-0.0376,-0.0351,-0.0423,-0.0426,-0.0428,-0.0435,-0.0439,-0.0442,0,0,0,0,0,-0.0476,-0.0497,-0.0509,-0.0529,-0.0601,-0.063,-0.0626,-0.0561,-0.0543,-0.0491,-0.0434,-0.0431,-0.0352,-0.0334,-0.0339,-0.0379,-0.0422,-0.0425,-0.0428,-0.0433,-0.0438,-0.0442,0,0,0,0,0,0,-0.0378,-0.0484,-0.0495,-0.0546,-0.0559,-0.0598,-0.0581,-0.0562,-0.0489,-0.0456,-0.0429,-0.0411,-0.0375,-0.0386,-0.0367,-0.0411,-0.0399,-0.0402,-0.0402,-0.0406,-0.041,-0.0332,-0.0352,0,0,0,0,0,-0.0375,-0.041,-0.0492,-0.0519,-0.0554,-0.0574,-0.0571,-0.0528,-0.051,-0.0469,-0.0416,-0.0397,-0.0414,-0.0402,-0.0384,-0.042,-0.0453,-0.0457,-0.046,-0.0463,-0.0405,-0.0538,-0.0548,-0.0438,-0.0438,-0.0438,0,0,-0.037,-0.0411,-0.0443,-0.0498,-0.0533,-0.0563,-0.055,-0.0542,-0.0501,-0.0482,-0.0381,-0.0388,-0.0418,-0.0412,-0.0408,-0.0414,-0.0515,-0.0466,-0.0468,-0.0407,-0.0542,-0.0553,-0.0562,-0.044,-0.044,-0.0439,0,0,-0.0379,-0.0412,-0.0457,-0.0448,-0.0474,-0.051,-0.051,-0.0517,-0.0439,-0.0381,-0.0379,-0.0385,-0.0368,-0.0402,-0.0434,-0.0466,-0.0515,-0.0491,-0.0462,-0.0595,-0.0605,-0.0614,-0.0679,-0.0693,-0.0512,-0.0512,-0.0512,0,-0.0345,-0.0432,-0.0459,-0.0462,-0.0455,-0.0499,-0.051,-0.0479,-0.0418,-0.0363,-0.0317,-0.0343,-0.0367,-0.0447,-0.0435,-0.0474,-0.0525,-0.0446,-0.06,-0.0609,-0.0618,-0.0683,-0.0699,-0.0513,-0.0512,-0.0512,-0.0512,0,-0.0398,-0.0423,-0.0449,-0.0493,-0.0456,-0.0479,-0.0463,-0.0401,-0.0355,-0.0311,-0.0273,-0.0307,-0.0314,-0.0385,-0.0404,-0.0515,-0.0521,-0.0579,-0.0586,-0.0629,-0.0695,-0.0712,-0.0514,-0.0513,-0.0513,-0.0513,0,0,-0.045,-0.0497,-0.048,-0.0481,-0.0461,-0.0451,-0.0393,-0.0372,-0.0341,-0.0255,-0.0221,-0.0269,-0.0263,-0.0299,-0.0387,-0.0509,-0.0639,-0.0552,-0.0559,-0.0606,-0.0884,-0.0753,-0.0759,-0.0738,-0.0741,-0.0743,-0.0908,0,-0.05,-0.0521,-0.0497,-0.0489,-0.0537,-0.0461,-0.0401,-0.0312,-0.0268,-0.0224,-0.025,-0.0241,-0.0251,-0.0284,-0.0396,-0.0575,-0.0679,-0.0584,-0.0838,-0.0843,-0.0717,-0.0773,-0.0722,-0.0852,-0.0924,-0.0927,-0.0929,0,-0.054,-0.0568,-0.0566,-0.0509,-0.0511,-0.0468,-0.0374,-0.0315,-0.0253,-0.0174,-0.0161,-0.0167,-0.0266,-0.0305,-0.0557,-0.0493,-0.0644,-0.0792,-0.0805,-0.067,-0.0741,-0.082,-0.0879,-0.0956,-0.0954,-0.0952,-0.095,0,-0.0561,-0.0574,-0.0573,-0.0544,-0.0512,-0.0434,-0.0403,-0.0296,-0.0209,-0.0165,-0.0117,-0.019,-0.0237,-0.0428,-0.0594,-0.0606,-0.0892,-0.0978,-0.0996,-0.0989,-0.0977,-0.0962,-0.1163,-0.1163,-0.1163,-0.1162,-0.1162,0,-0.0606,-0.0591,-0.0586,-0.0582,-0.0511,-0.0445,-0.0345,-0.0278,-0.0213,-0.0108,-0.0108,-0.008,-0.0273,-0.041,-0.0599,-0.0786,-0.0886,-0.0954,-0.1023,-0.0976,-0.0959,-0.1066,-0.1053,-0.1168,-0.1167,-0.1166,-0.1165,0,-0.0584,-0.0608,-0.0592,-0.0562,-0.0519,-0.0436,-0.028,-0.0217,-0.0163,-0.0056,-0.002,-0.0026,-0.0149,-0.0342,-0.0667,-0.0772,-0.1005,-0.1059,-0.0924,-0.0968,-0.1018,-0.1004,-0.1117,-0.1114,-0.1111,-0.1109,-0.1107,0,-0.0579,-0.0591,-0.0523,-0.0464,-0.0438,-0.0331,-0.0225,-0.0149,-0.0068,0.0005,0.0059,-0.0012,0.0022,-0.0339,-0.0569,-0.0837,-0.0936,-0.0958,-0.096,-0.0958,-0.1015,-0.1005,-0.0994,-0.0986,-0.0983,-0.0981,-0.0979,0,-0.0567,-0.0514,-0.0484,-0.0387,-0.0278,-0.0158,-0.004,0.0028,0.0134,0.0207,0.0288,0.0289,0.0055,-0.0143,-0.0452,-0.0644,-0.0895,-0.0912,-0.1033,-0.0949,-0.0833,-0.0888,-0.0884,-0.0959,-0.0961,-0.0962,-0.0963,-0.0964,-0.0485,-0.0428,-0.0366,-0.0246,-0.0131,0.0012,0.0128,0.0234,0.0374,0.0487,0.0448,0.0469,0.0202,-0.0131,-0.0391,-0.0658,-0.0719,-0.085,-0.0861,-0.0873,-0.0772,-0.0651,-0.0723,-0.0724,-0.0724,-0.0725,-0.0725,0,-0.0387,-0.032,-0.0227,-0.0078,0.0064,0.0099,0.0275,0.0389,0.0572,0.0641,0.0706,0.0491,0.0288,-0.0005,-0.0355,-0.0585,-0.0655,-0.0661,-0.0729,-0.0747,-0.0764,-0.066,-0.0582,-0.0582,-0.0581,-0.0581,0,0,-0.0323,-0.021,-0.0169,0.0071,0.0186,0.0384,0.049,0.0645,0.0744,0.0796,0.0801,0.073,0.0398,0.0166,-0.0171,-0.0351,-0.0484,-0.0383,-0.0481,-0.0539,-0.0551,-0.0864,-0.072,0,0,0,0,0]}],[{"header":{"parameterUnit":"m.s-1","parameterCategory":2,"la1":30.2991,"la2":30.254,"lo1":-89.0895,"lo2":-89.0444,"dy":0.0017,"dx":0.0017,"nx":28,"ny":28,"refTime":"2023-07-19T03:00:00:Z","depth":"4","parameterNumber":2,"parameterNumberName":"U-component_of_CURRENTS"},"data":[0,0,0,0,0,0,0,0,0,0,0,0,0,0,0,0,0,0,0,0,0,0,0,0,0,0,0,0,0,0,0,0,0,0,0,0,0,0,0,0,0,0,0,0,0,0,0,0,0,0,0,0,0,0,0,0,0,0,0.0567,0.0567,0,0.0582,0.0582,0.0582,0.0611,0.0612,0.0613,0.0614,0.0627,0.0626,0.0625,0,0,0,0,0,0,0,0,0,0,0,0,0,0.054,0.054,0.0567,0.0567,0.0568,0.0582,0.0582,0.0582,0.0611,0.0612,0.0613,0.0614,0.0627,0.0626,0.0625,0,0,0,0,0,0,0,0,0,0,0,0,0,0.0549,0.054,0.0567,0.0588,0.059,0.0582,0.0582,0.0582,0.061,0.0612,0.0613,0.0615,0.0627,0.0626,0.0625,0.0589,0,0,0.0622,0.0622,0,0,0,0,0,0,0,0,0.0548,0.0549,0.0584,0.0586,0.0589,0.0601,0.0578,0.0586,0.061,0.0597,0.0614,0.0616,0.062,0.0619,0.0612,0.059,0.059,0.0622,0.0622,0.0621,0.0621,0,0,0,0,0,0,0,0.0547,0.0548,0.0568,0.0585,0.0588,0.0589,0.0592,0.0579,0.0596,0.0599,0.0602,0.0611,0.0621,0.0613,0.0613,0.059,0.0622,0.0622,0.0621,0.0621,0.0646,0.0647,0,0,0,0,0,0,0.0555,0.0548,0.0567,0.0569,0.0578,0.0589,0.0592,0.0591,0.0596,0.06,0.061,0.0613,0.0614,0.0614,0.0613,0.068,0.0621,0.0621,0.062,0.0644,0.0646,0.0647,0,0,0,0,0,0,0.0554,0.0556,0.0567,0.0563,0.0566,0.0589,0.0587,0.0591,0.0609,0.0606,0.0609,0.0629,0.0615,0.0615,0.0643,0.0677,0.062,0.0619,0.0643,0.0645,0.0647,0.0744,0,0,0,0,0,0,0.0553,0.0555,0.0555,0.0563,0.0566,0.0587,0.0587,0.059,0.0613,0.0617,0.0622,0.0623,0.0616,0.0645,0.0642,0.0675,0.0619,0.0641,0.0644,0.0646,0.0739,0.0749,0.0757,0,0,0,0,0,0.0552,0.0552,0.0555,0.0558,0.0566,0.0589,0.059,0.0608,0.0613,0.0627,0.0642,0.0625,0.0657,0.0645,0.0642,0.0675,0.064,0.0643,0.0646,0.0735,0.0747,0.0757,0,0,0,0,0,0,0.0533,0.0555,0.0559,0.0563,0.0586,0.0596,0.0605,0.0618,0.0636,0.0648,0.0639,0.0642,0.0674,0.0658,0.0645,0.0688,0.0645,0.0647,0.0714,0.0725,0.0734,0.0736,0.0618,0,0,0,0,0,0.0529,0.0546,0.0561,0.0571,0.0577,0.0592,0.0602,0.0625,0.0643,0.0653,0.0661,0.0668,0.0674,0.0691,0.0685,0.0711,0.0688,0.0729,0.0738,0.0746,0.0745,0.0745,0.0755,0.0656,0.0656,0.0656,0,0,0.0527,0.0542,0.0551,0.057,0.0581,0.0602,0.0602,0.0635,0.0662,0.065,0.0687,0.0693,0.0684,0.0719,0.0732,0.0719,0.0765,0.0749,0.0756,0.075,0.0749,0.0759,0.0767,0.0658,0.0658,0.0657,0,0,0.054,0.054,0.0559,0.0577,0.0613,0.0624,0.0641,0.0669,0.0689,0.0727,0.0727,0.0761,0.0767,0.0781,0.0782,0.0833,0.0803,0.0836,0.0897,0.0899,0.0907,0.0914,0.091,0.0916,0.0853,0.0853,0.0853,0,0.0533,0.0555,0.057,0.0592,0.0612,0.0638,0.0665,0.0682,0.0726,0.0747,0.0754,0.0794,0.0792,0.0834,0.0866,0.0854,0.0849,0.0861,0.0911,0.0917,0.0923,0.0917,0.0922,0.0858,0.0858,0.0857,0.0857,0,0.0554,0.0578,0.0589,0.0626,0.0653,0.0682,0.0714,0.0749,0.0778,0.08,0.0854,0.087,0.0903,0.0911,0.0908,0.0956,0.0939,0.0914,0.0886,0.0939,0.093,0.0933,0.0865,0.0863,0.0862,0.0861,0,0,0.0521,0.0589,0.0597,0.0624,0.0675,0.07,0.0748,0.0793,0.0829,0.0878,0.0922,0.0963,0.0993,0.0997,0.101,0.1023,0.1067,0.1003,0.1,0.1003,0.1077,0.1048,0.1048,0.106,0.1061,0.1062,0.1061,0,0.053,0.0583,0.0619,0.0676,0.07,0.0744,0.0785,0.0839,0.088,0.0927,0.0962,0.1006,0.1019,0.1058,0.108,0.1057,0.1079,0.1069,0.1021,0.102,0.099,0.1052,0.1065,0.1063,0.1064,0.1064,0.1064,0,0.053,0.0573,0.0627,0.0706,0.072,0.0766,0.0841,0.0889,0.0955,0.0992,0.106,0.1075,0.1131,0.1119,0.114,0.114,0.1127,0.1104,0.1103,0.104,0.0996,0.0995,0.107,0.107,0.1069,0.1069,0.1068,0,0.0493,0.0575,0.0623,0.0646,0.0734,0.0781,0.0841,0.0917,0.0958,0.1048,0.1084,0.1143,0.1181,0.1177,0.1169,0.1159,0.1162,0.113,0.1091,0.1088,0.1069,0.1061,0.1138,0.1138,0.1138,0.1138,0.1138,0,0.047,0.051,0.0619,0.0638,0.0711,0.0789,0.0864,0.0931,0.1016,0.106,0.1135,0.1165,0.1199,0.1205,0.1184,0.1162,0.1183,0.111,0.1092,0.1111,0.1108,0.1072,0.1064,0.1138,0.1138,0.1138,0.1138,0,0.0416,0.0478,0.0537,0.0648,0.0692,0.0752,0.0874,0.092,0.1023,0.1083,0.1115,0.1188,0.1209,0.1223,0.1206,0.118,0.1148,0.1133,0.1167,0.1148,0.1065,0.1062,0.1079,0.1078,0.1077,0.1076,0.1076,0,0.0393,0.0417,0.0534,0.0577,0.0634,0.0735,0.0795,0.0915,0.0958,0.1075,0.1085,0.115,0.1186,0.1149,0.1169,0.115,0.1136,0.1124,0.1089,0.1082,0.1062,0.1061,0.1059,0.1075,0.1074,0.1074,0.1074,0,0.0341,0.0384,0.0432,0.0524,0.0598,0.0671,0.077,0.0793,0.0917,0.1002,0.1042,0.1071,0.1099,0.1105,0.1126,0.1097,0.1131,0.1115,0.1116,0.1083,0.1077,0.1058,0.1057,0.1071,0.1072,0.1072,0.1072,0,0.0301,0.0321,0.0385,0.0469,0.0546,0.06,0.0659,0.0728,0.0789,0.0925,0.0923,0.1003,0.1071,0.1077,0.1073,0.1077,0.1051,0.1013,0.1018,0.1022,0.1008,0.0993,0.0956,0,0,0,0,0,0.0264,0.0282,0.0334,0.0414,0.0486,0.054,0.0635,0.0692,0.0797,0.0806,0.0874,0.09,0.0945,0.0976,0.0967,0.1033,0.1042,0.1018,0.0998,0.1056,0.106,0.1051,0,0,0,0,0,0,0.0233,0.0269,0.0302,0.0354,0.0404,0.0476,0.0534,0.0609,0.0623,0.0733,0.0753,0.0852,0.0891,0.0936,0.0948,0.0961,0.0934,0.1074,0.1073,0.1055,0.1057,0.106,0.1053,0,0,0,0,0]},{"header":{"parameterUnit":"m.s-1","parameterCategory":2,"la1":30.2991,"la2":30.254,"lo1":-89.0895,"lo2":-89.0444,"dy":0.0017,"dx":0.0017,"nx":28,"ny":28,"refTime":"2023-07-19T03:00:00:Z","depth":"4","parameterNumber":3,"parameterNumberName":"V-component_of_CURRENTS"},"data":[0,0,0,0,0,0,0,0,0,0,0,0,0,0,0,0,0,0,0,0,0,0,0,0,0,0,0,0,0,0,0,0,0,0,0,0,0,0,0,0,0,0,0,0,0,0,0,0,0,0,0,0,0,0,0,0,0,0,-0.0269,-0.0269,0,-0.0268,-0.0268,-0.0267,-0.0316,-0.0317,-0.0318,-0.032,-0.0476,-0.0479,-0.0482,0,0,0,0,0,0,0,0,0,0,0,0,0,-0.027,-0.027,-0.0269,-0.0269,-0.0269,-0.0268,-0.0267,-0.0267,-0.0316,-0.0317,-0.0319,-0.032,-0.0475,-0.0479,-0.0482,0,0,0,0,0,0,0,0,0,0,0,0,0,-0.0269,-0.027,-0.0269,-0.0293,-0.0295,-0.0268,-0.0267,-0.0267,-0.0315,-0.0317,-0.0319,-0.0321,-0.0474,-0.0478,-0.0483,-0.0469,0,0,-0.0496,-0.0498,0,0,0,0,0,0,0,0,-0.0269,-0.0269,-0.0289,-0.0291,-0.0294,-0.0294,-0.0325,-0.0343,-0.0315,-0.0307,-0.032,-0.0322,-0.0429,-0.0437,-0.0429,-0.0477,-0.0483,-0.0496,-0.0499,-0.0501,-0.0502,0,0,0,0,0,0,0,-0.0269,-0.0269,-0.0268,-0.0289,-0.0292,-0.029,-0.0292,-0.0328,-0.0359,-0.0308,-0.0312,-0.0312,-0.0432,-0.0425,-0.0434,-0.0486,-0.0496,-0.05,-0.0503,-0.0505,-0.0603,-0.0602,0,0,0,0,0,0,-0.027,-0.0269,-0.0268,-0.0268,-0.0287,-0.0288,-0.0291,-0.0292,-0.0355,-0.0366,-0.031,-0.0314,-0.0416,-0.0429,-0.044,-0.0475,-0.0501,-0.0505,-0.0508,-0.0603,-0.0603,-0.0602,0,0,0,0,0,0,-0.027,-0.027,-0.0268,-0.0269,-0.0269,-0.0287,-0.0287,-0.0291,-0.0303,-0.0355,-0.0369,-0.0321,-0.0418,-0.0434,-0.0505,-0.048,-0.0507,-0.0511,-0.0603,-0.0603,-0.0602,-0.0516,0,0,0,0,0,0,-0.027,-0.027,-0.0274,-0.0269,-0.0269,-0.0264,-0.0285,-0.0289,-0.0299,-0.0305,-0.0369,-0.0384,-0.0421,-0.0498,-0.0509,-0.0487,-0.0514,-0.0603,-0.0603,-0.0603,-0.0518,-0.0513,-0.0508,0,0,0,0,0,-0.027,-0.0248,-0.0274,-0.0275,-0.0273,-0.0264,-0.0264,-0.0283,-0.0298,-0.0301,-0.036,-0.0383,-0.0505,-0.0502,-0.0515,-0.0493,-0.0603,-0.0603,-0.0603,-0.0521,-0.0514,-0.0508,0,0,0,0,0,0,-0.0241,-0.0252,-0.028,-0.0263,-0.0278,-0.0273,-0.0262,-0.0284,-0.0324,-0.0338,-0.0395,-0.0415,-0.0458,-0.0497,-0.0493,-0.0523,-0.0552,-0.0554,-0.0485,-0.0479,-0.0474,-0.0478,-0.0518,0,0,0,0,0,-0.024,-0.023,-0.0253,-0.0238,-0.0243,-0.0259,-0.0258,-0.0278,-0.0307,-0.0325,-0.0377,-0.0427,-0.0459,-0.0492,-0.0529,-0.0557,-0.0587,-0.0549,-0.0544,-0.0538,-0.0552,-0.0582,-0.058,-0.0602,-0.0602,-0.0602,0,0,-0.0223,-0.0225,-0.0222,-0.0233,-0.0236,-0.0231,-0.0263,-0.0259,-0.0258,-0.0338,-0.0363,-0.0413,-0.0464,-0.0489,-0.0511,-0.0526,-0.0543,-0.0538,-0.0533,-0.0551,-0.0582,-0.058,-0.0578,-0.0602,-0.0602,-0.0602,0,0,-0.017,-0.0188,-0.0169,-0.018,-0.0196,-0.0205,-0.021,-0.0232,-0.0249,-0.0285,-0.0331,-0.0383,-0.0438,-0.0467,-0.0486,-0.0478,-0.051,-0.0481,-0.046,-0.0488,-0.0486,-0.0485,-0.049,-0.0491,-0.0481,-0.048,-0.048,0,-0.0159,-0.0138,-0.0162,-0.0149,-0.0149,-0.0194,-0.0181,-0.019,-0.0239,-0.0258,-0.0291,-0.0377,-0.042,-0.0444,-0.0443,-0.0463,-0.0484,-0.0474,-0.0479,-0.0479,-0.0479,-0.0485,-0.0487,-0.0476,-0.0477,-0.0477,-0.0478,0,-0.0095,-0.0092,-0.0071,-0.0078,-0.0084,-0.0072,-0.0103,-0.0124,-0.0158,-0.0185,-0.0237,-0.0309,-0.0367,-0.0371,-0.0408,-0.0424,-0.0438,-0.0461,-0.0489,-0.0471,-0.0479,-0.0482,-0.047,-0.0472,-0.0473,-0.0474,0,0,-0.0038,-0.0034,-0.003,-0.0032,-0.005,-0.0045,-0.0045,-0.0065,-0.0071,-0.0136,-0.0154,-0.0218,-0.028,-0.0309,-0.0359,-0.0393,-0.0398,-0.0431,-0.0434,-0.0425,-0.0448,-0.043,-0.0432,-0.0424,-0.0425,-0.0426,-0.044,0,0.0011,0.0044,0.0035,0.0061,0.007,0.003,0.0035,0.0004,-0.0033,-0.0064,-0.0139,-0.0176,-0.0244,-0.0277,-0.0322,-0.0384,-0.0409,-0.0392,-0.0479,-0.0481,-0.0458,-0.0436,-0.0428,-0.0443,-0.0443,-0.0444,-0.0444,0,0.0067,0.0083,0.011,0.0111,0.0112,0.0118,0.01,0.0095,0.0045,0.001,-0.0058,-0.0117,-0.0184,-0.0238,-0.0344,-0.0333,-0.0389,-0.0436,-0.0438,-0.0462,-0.047,-0.0475,-0.045,-0.045,-0.0449,-0.0449,-0.0449,0,0.0108,0.0134,0.0155,0.0158,0.0152,0.0155,0.0149,0.011,0.0102,0.0052,0.0032,-0.0062,-0.011,-0.0203,-0.0314,-0.0329,-0.0419,-0.0444,-0.0476,-0.0475,-0.0525,-0.0526,-0.051,-0.051,-0.051,-0.051,-0.051,0,0.0152,0.0174,0.0176,0.0187,0.021,0.0192,0.0203,0.0176,0.0147,0.0133,0.0065,0.0026,-0.0109,-0.0181,-0.0283,-0.0385,-0.0394,-0.0473,-0.0482,-0.0484,-0.0481,-0.0525,-0.0526,-0.051,-0.051,-0.051,-0.051,0,0.0176,0.0181,0.0209,0.022,0.0222,0.0233,0.0236,0.0237,0.0212,0.0193,0.0181,0.0095,-0.0006,-0.0122,-0.0261,-0.0334,-0.0433,-0.0464,-0.0433,-0.0441,-0.0475,-0.0472,-0.0498,-0.0497,-0.0497,-0.0497,-0.0497,0,0.0182,0.02,0.0226,0.0236,0.024,0.0259,0.0264,0.0255,0.0254,0.0223,0.021,0.0134,0.006,-0.0104,-0.0236,-0.039,-0.0425,-0.0451,-0.0495,-0.0469,-0.0476,-0.0473,-0.0471,-0.0496,-0.0496,-0.0496,-0.0496,0,0.0194,0.0206,0.0221,0.0245,0.026,0.0284,0.0294,0.0305,0.0291,0.0285,0.023,0.0144,0.0041,-0.0106,-0.021,-0.0335,-0.0422,-0.0448,-0.0451,-0.0493,-0.0467,-0.0474,-0.0472,-0.0495,-0.0495,-0.0495,-0.0495,0,0.0191,0.0204,0.0219,0.0239,0.0262,0.028,0.0302,0.03,0.0301,0.0274,0.0253,0.0144,0.0077,-0.0077,-0.0186,-0.0288,-0.0333,-0.0365,-0.0373,-0.0376,-0.0346,-0.0296,-0.0276,0,0,0,0,0,0.0175,0.0184,0.0207,0.0223,0.0252,0.026,0.0297,0.0318,0.0328,0.0291,0.0272,0.0173,0.0014,-0.0057,-0.016,-0.0195,-0.0352,-0.0317,-0.0394,-0.0488,-0.0489,-0.0475,0,0,0,0,0,0,0.0158,0.0179,0.0196,0.0203,0.0208,0.0235,0.026,0.0275,0.0259,0.0258,0.0173,0.0142,-0.0017,0.0055,-0.0172,-0.0201,-0.0261,-0.0391,-0.0393,-0.0487,-0.0488,-0.0489,-0.0475,0,0,0,0,0]}]]